Location: Pic du Midi - T1M
(42.9366°N, 0.1426°E)
Time: 23:38:31
(UTC+01:00)

Tianhe-1 - Visible Passes

Search period start: 19 June 2021 00:00
Search period end: 29 June 2021 00:00
Orbit: 375 x 386 km, 41.5° (Epoch: 19 June)

Date Brightness Start Highest point End Pass type
(mag) Time Alt. Az. Time Alt. Az. Time Alt. Az.
20 Jun 3.1 03:49:34 14° SSE 03:50:22 15° SSE 03:52:18 10° ESE visible
21 Jun 2.0 04:23:22 13° SW 04:25:47 34° SSE 04:28:41 10° E visible
22 Jun 2.5 03:25:01 23° SSE 03:25:01 23° SSE 03:27:30 10° E visible
23 Jun 1.4 03:58:44 22° SW 04:00:26 46° SSE 04:03:28 10° E visible
24 Jun 2.4 03:00:21 28° SE 03:00:21 28° SE 03:02:23 10° E visible
24 Jun 1.0 04:32:58 10° W 04:36:04 67° S 04:39:11 10° E visible
25 Jun 1.1 03:34:05 36° SW 03:35:05 58° S 03:38:11 10° E visible
26 Jun 2.9 02:35:45 22° ESE 02:35:45 22° ESE 02:37:07 10° E visible
26 Jun 1.0 04:07:52 12° W 04:10:43 67° S 04:13:50 10° E visible
27 Jun 0.9 03:09:35 65° SSW 03:09:42 66° S 03:12:49 10° E visible
27 Jun 1.4 04:43:17 10° W 04:46:19 47° SSW 04:49:21 10° ESE visible
28 Jun 3.8 02:11:26 12° E 02:11:26 12° E 02:11:46 10° E visible
28 Jun 1.0 03:43:34 23° W 03:45:20 60° S 03:48:25 10° ESE visible
